DateTimeUTC,F1_A11,F1_S11,BsB_S11,BsG_S11,BsR_S11,BbsB_S11,BbsG_S11,BbsR_S11,BaB_A11,BaG_A11,BaR_A11,Tu_S11,T_S11,Uu_S11,U_S11,P_S11,T1_A11
2021-12-21T20:00:00Z,00000200,21000000,,,,,,,-000.05,-000.14,-000.05,20.9,27.8,,00.0,0668.3,31.6
2021-12-21T20:01:00Z,00000200,21000000,,,,,,,-000.26,-000.12,-000.16,20.9,27.8,,00.0,0668.3,31.7
2021-12-21T20:02:00Z,00000200,21000000,,,,,,,0000.16,-000.15,0000.25,21.0,27.9,,00.0,0668.3,31.7
2021-12-21T20:03:00Z,00000200,61000000,,,,,,,-000.04,0000.07,-000.41,21.0,27.9,,00.0,0668.3,31.7
2021-12-21T20:04:00Z,00000200,41000000,0000.35,-000.04,-000.41,-000.24,-000.01,0000.07,0000.00,0000.12,0000.17,21.3,27.8,,00.0,0669.2,31.7
2021-12-21T20:05:00Z,00000200,01000000,0000.26,0000.25,0000.05,0000.38,0000.23,-000.27,-000.04,0000.19,0000.26,21.3,27.8,,00.0,0669.2,31.7
2021-12-21T20:06:00Z,00000200,01000000,0000.34,0000.12,0000.38,0000.44,0000.13,0000.21,-000.21,-000.52,-000.44,21.2,27.7,,00.0,0669.2,31.7
2021-12-21T20:07:00Z,00000200,01000000,-000.25,-000.35,-000.23,-000.12,0000.35,-000.43,-000.02,-000.02,-000.20,21.2,27.7,,00.0,0669.2,31.6
2021-12-21T20:08:00Z,00000200,01000000,0000.15,0000.25,0000.06,0000.38,-000.18,-000.30,0000.11,-000.50,0000.23,21.1,27.7,,00.0,0669.2,31.6
2021-12-21T20:09:00Z,00000200,01000000,0000.47,0000.14,0000.20,0000.28,-000.10,0000.12,0000.06,0000.29,-000.16,21.1,27.6,,00.0,0669.2,31.6
2021-12-21T20:10:00Z,00000200,01000000,-000.04,0000.40,-000.30,0000.37,0000.08,-000.26,-000.25,-000.24,-000.15,21.0,27.6,,00.0,0669.1,31.6
2021-12-21T20:11:00Z,00000200,01000000,-000.01,0000.15,0000.27,-000.20,0000.11,0000.06,0000.17,0000.14,0000.25,21.0,27.6,,00.0,0669.1,31.6
2021-12-21T20:12:00Z,00000200,01000000,0000.26,0000.06,0000.02,0000.42,0000.21,-000.05,0000.17,0000.13,0000.32,21.0,27.6,,00.0,0669.1,31.6
2021-12-21T20:13:00Z,00000200,01000000,0000.29,0000.04,0000.10,0000.21,0000.51,-000.11,-000.06,0000.10,-000.33,21.1,27.6,,00.0,0669.1,31.6
2021-12-21T20:14:00Z,00000200,01000000,0000.35,-000.03,0000.51,-000.13,0000.36,-000.06,-000.16,0000.25,0000.33,21.2,27.6,,00.0,0669.1,31.6
2021-12-21T20:15:00Z,00000200,01000000,-000.01,0000.11,0000.27,-000.09,0000.33,0000.34,0000.19,-000.23,0000.10,21.2,27.7,,00.0,0669.2,31.6
2021-12-21T20:16:00Z,00000200,01000000,0000.27,-000.11,-000.28,0000.19,0000.24,-000.06,-000.14,0000.15,-000.51,21.3,27.7,,00.0,0669.2,31.6
2021-12-21T20:17:00Z,00000200,01000000,-000.01,0000.02,0000.29,0000.00,0000.27,0000.19,0000.33,-000.20,0000.45,21.3,27.7,,00.0,0669.3,31.7
2021-12-21T20:18:00Z,00000200,01000000,0000.49,0000.14,-000.04,0000.09,0000.01,0000.02,-000.23,-000.29,-000.25,21.2,27.7,,00.0,0669.2,31.6
2021-12-21T20:19:00Z,00000200,01000000,0000.62,0000.21,0000.46,0000.81,0000.11,0000.25,0000.13,0000.32,-000.08,21.2,27.7,,00.0,0669.2,31.6
2021-12-21T20:20:00Z,00000200,01000000,0000.09,-000.04,0000.22,0000.02,0000.11,-000.02,-000.25,-000.03,-000.05,21.1,27.6,,00.0,0669.2,31.6
2021-12-21T20:21:00Z,00000200,01000000,0000.78,0000.14,0000.18,0000.77,0000.13,-000.08,-000.11,-000.02,-000.00,21.1,27.6,,00.0,0669.1,31.6
2021-12-21T20:22:00Z,00000200,01000000,-000.03,0000.05,0000.05,0000.60,0000.24,0000.06,0000.04,0000.01,0000.15,21.0,27.6,,00.0,0669.1,31.6
2021-12-21T20:23:00Z,00000200,01000000,0000.08,-000.01,-000.19,-000.07,0000.22,-000.13,0000.25,0000.25,0000.17,20.9,27.5,,00.0,0669.1,31.5
2021-12-21T20:24:00Z,00000200,01000000,-000.07,-000.06,0000.19,0000.39,-000.13,0000.14,-000.04,-000.06,-000.41,20.9,27.5,,00.0,0669.0,31.5
2021-12-21T20:25:00Z,00000200,01000000,0000.48,-000.05,0000.22,-000.27,0000.11,-000.10,-000.10,-000.07,0000.38,20.8,27.5,,00.0,0669.0,31.5
2021-12-21T20:26:00Z,00000200,01000000,0000.12,0000.48,0000.22,0000.05,0000.33,-000.25,0000.38,0000.17,0000.07,20.8,27.5,,00.0,0669.0,31.5
2021-12-21T20:27:00Z,00000200,01000000,0000.75,-000.00,0000.09,0000.84,0000.35,-000.10,0000.40,0000.40,0000.14,20.9,27.4,,00.0,0669.1,31.5
2021-12-21T20:28:00Z,00000200,01000000,0000.63,-000.05,0000.13,-000.17,0000.13,0000.28,-000.07,0000.25,-000.16,20.9,27.4,,00.0,0669.1,31.5
2021-12-21T20:29:00Z,00000200,01000000,0000.47,-000.07,-000.27,0000.49,0000.24,-000.16,0000.40,0000.08,0000.38,21.0,27.5,,00.0,0669.1,31.5
2021-12-21T20:30:00Z,00000200,01000000,0000.14,0000.25,0000.15,0000.69,-000.13,0000.15,-000.19,-000.01,-000.11,21.0,27.5,,00.0,0669.1,31.5
2021-12-21T20:31:00Z,00000200,01000000,0000.69,0000.01,0000.24,-000.10,-000.10,0000.22,0000.17,0000.20,0000.34,21.1,27.5,,00.0,0669.1,31.5
2021-12-21T20:32:00Z,00000200,01000000,0000.94,0000.31,0000.23,0000.30,0000.07,-000.06,0000.05,-000.20,-000.23,21.2,27.5,,00.0,0669.1,31.5
2021-12-21T20:33:00Z,00000200,01000000,0000.47,0000.51,0000.19,0000.95,0000.46,-000.04,-000.00,0000.27,0000.20,21.2,27.6,,00.0,0669.1,31.6
2021-12-21T20:34:00Z,00000200,01000000,0000.31,-000.07,0000.42,0000.22,0000.05,-000.09,0000.14,-000.21,0000.19,21.3,27.6,,00.0,0669.1,31.6
2021-12-21T20:35:00Z,00000200,01000000,-000.21,0000.35,0000.27,0000.12,0000.08,-000.20,-000.09,0000.17,-000.38,21.3,27.6,,00.0,0669.0,31.6
2021-12-21T20:36:00Z,00000200,01000000,0000.80,0000.06,0000.27,0000.39,0000.10,0000.02,0000.30,0000.19,0000.33,21.2,27.6,,00.0,0669.1,31.6
2021-12-21T20:37:00Z,00000200,01000000,0000.10,0000.12,-000.10,-000.02,-000.01,-000.10,0000.05,0000.33,0000.24,21.2,27.6,,00.0,0669.1,31.6
2021-12-21T20:38:00Z,00000200,01000000,0000.27,0000.28,0000.38,0000.56,-000.05,0000.24,0000.35,-000.34,-000.29,21.1,27.6,,00.0,0669.1,31.6
2021-12-21T20:39:00Z,00000200,01000000,0000.42,-000.26,-000.04,-000.02,0000.55,-000.29,0000.04,0000.48,0000.43,21.1,27.5,,00.0,0669.1,31.5
2021-12-21T20:40:00Z,00000200,01000000,-000.15,0000.02,0000.16,0000.21,0000.14,0000.11,0000.19,-000.06,0000.16,21.0,27.5,,00.0,0669.1,31.5
2021-12-21T20:41:00Z,00000200,01000000,-000.08,-000.01,0000.06,0000.37,0000.50,0000.00,0000.40,0000.21,0000.31,21.0,27.5,,00.0,0669.1,31.5
2021-12-21T20:42:00Z,00000200,01000000,0000.17,0000.28,0000.48,0000.31,-000.03,0000.00,0000.02,0000.40,0000.11,21.0,27.5,,00.0,0669.1,31.5
2021-12-21T20:43:00Z,00000200,01000000,0000.55,-000.10,0000.14,-000.18,0000.17,-000.75,0000.24,-000.04,-000.14,21.1,27.5,,00.0,0669.1,31.5
2021-12-21T20:44:00Z,00000200,01000000,0000.04,0000.25,0000.16,-000.28,0000.34,0000.32,-000.01,0000.09,0000.42,21.2,27.5,,00.0,0669.1,31.5
2021-12-21T20:45:00Z,00000200,01000000,-000.52,0000.15,0000.11,-000.11,0000.08,0000.34,-000.17,0000.31,-000.28,21.2,27.5,,00.0,0669.1,31.5
2021-12-21T20:46:00Z,00000200,01000000,0000.60,0000.20,0000.00,-000.12,0000.25,0000.10,0000.21,-000.24,-000.05,21.3,27.6,,00.0,0669.2,31.6
2021-12-21T20:47:00Z,00000200,01000000,0000.27,0000.23,0000.27,-000.03,-000.10,0000.32,0000.12,0000.33,0000.24,21.3,27.6,,00.0,0669.2,31.6
2021-12-21T20:48:00Z,00000200,01000000,-000.12,0000.17,0000.02,-000.16,0000.24,-000.02,0000.06,0000.04,-000.17,21.4,27.6,,00.0,0669.2,31.6
2021-12-21T20:49:00Z,00000200,01000000,0000.58,-000.05,-000.01,0000.78,0000.31,0000.04,-000.30,-000.50,-000.10,21.5,27.7,,00.0,0669.3,31.6
2021-12-21T20:50:00Z,00000200,01000000,0000.14,-000.15,-000.15,0000.64,0000.18,0000.11,-000.00,0000.10,-000.01,21.5,27.7,,00.0,0669.2,31.6
2021-12-21T20:51:00Z,00000200,01000000,0000.28,0000.15,0000.27,-000.14,0000.10,0000.32,0000.19,0000.41,0000.40,21.4,27.7,,00.0,0669.2,31.6
2021-12-21T20:52:00Z,00000200,01000000,-000.39,-000.19,0000.15,-000.09,0000.12,0000.06,-000.31,-000.25,-000.18,21.4,27.7,,00.0,0669.2,31.6
2021-12-21T20:53:00Z,00000200,01000000,0000.18,0000.16,-000.29,-000.35,0000.08,-000.32,0000.32,0000.32,-000.22,21.3,27.7,,00.0,0669.2,31.6
2021-12-21T20:54:00Z,00000200,01000000,-000.06,0000.35,0000.19,0000.86,0000.27,0000.08,-000.14,-000.32,0000.18,21.2,27.6,,00.0,0669.2,31.6
2021-12-21T20:55:00Z,00000200,01000000,0000.21,-000.32,0000.36,0000.34,-000.03,0000.47,-000.16,-000.01,-000.19,21.2,27.6,,00.0,0669.2,31.6
2021-12-21T20:56:00Z,00000200,01000000,0001.01,0000.08,0000.04,-000.72,0000.05,0000.01,0000.33,0000.03,0000.42,21.2,27.6,,00.0,0669.2,31.6
2021-12-21T20:57:00Z,00000200,41000000,,,,,,,-000.01,0000.22,-000.01,21.2,27.6,,00.0,0669.2,31.6
2021-12-21T20:58:00Z,00000200,61000000,,,,,,,0000.18,-000.04,-000.18,21.0,27.7,,00.0,0668.2,31.6
2021-12-21T20:59:00Z,00000200,21000000,,,,,,,-000.21,0000.13,0000.22,21.0,27.8,,00.0,0668.2,31.6
